YM2KA-13 Weather Reports


time (UTC)temp
C
wind
direction
speed
KPH
gust
KPH
rain 1hr
cm
rain 24hr
cm
rain mn
cm
humidity
%
barometer
mb
20260906105321 28 212 4.8 9.7 0.00 0.00 0.00 26 1011.1
20260906105129 27 175 1.6 4.8 0.00 0.00 0.00 27 1011.1
20260906104131 27 305 3.2 4.8 0.00 0.00 0.00 27 1011.2
20260906103818 27 291 8.0 11.3 0.00 0.00 0.00 28 1011.1
20260906103131 27 283 3.2 4.8 0.00 0.00 0.00 27 1011.2
20260906102325 27 330 1.6 1.6 0.00 0.00 0.00 28 1011.2
20260906102122 27 251 3.2 8.0 0.00 0.00 0.00 28 1011.2
20260906101124 26 199 1.6 0.0 0.00 0.00 0.00 27 1011.3
20260906100821 26 219 4.8 9.7 0.00 0.00 0.00 27 1011.3
20260906100124 26 281 8.0 9.7 0.00 0.00 0.00 26 1011.4
20260906095317 26 321 8.0 9.7 0.00 0.00 0.00 27 1011.4
20260906095125 27 300 8.0 11.3 0.00 0.00 0.00 28 1011.5
20260906094127 26 238 0.0 1.6 0.00 0.00 0.00 28 1011.4
20260906093824 26 294 3.2 8.0 0.00 0.00 0.00 29 1011.4
20260906093128 26 284 3.2 9.7 0.00 0.00 0.00 30 1011.5
20260906092321 26 286 1.6 4.8 0.00 0.00 0.00 30 1011.5
20260906092129 26 227 1.6 3.2 0.00 0.00 0.00 30 1011.6
20260906091130 26 306 4.8 8.0 0.00 0.00 0.00 32 1011.5
20260906090827 26 285 9.7 12.9 0.00 0.00 0.00 31 1011.5
20260906090130 26 257 1.6 8.0 0.00 0.00 0.00 32 1011.5
20260906085323 25 331 4.8 4.8 0.00 0.00 0.00 32 1011.7
20260906085131 25 310 3.2 9.7 0.00 0.00 0.00 32 1011.7
20260906084123 25 233 1.6 3.2 0.00 0.00 0.00 34 1011.6
20260906083820 25 260 9.7 12.9 0.00 0.00 0.00 35 1011.6
20260906083123 25 274 4.8 3.2 0.00 0.00 0.00 35 1011.7
20260906082326 24 313 4.8 8.0 0.00 0.00 0.00 35 1011.8
20260906082124 24 319 3.2 9.7 0.00 0.00 0.00 34 1011.8
20260906081126 24 247 4.8 11.3 0.00 0.00 0.00 36 1011.9
20260906080823 24 301 3.2 9.7 0.00 0.00 0.00 37 1011.9
20260906080126 23 305 8.0 12.9 0.00 0.00 0.00 39 1011.9
20260906075319 23 291 3.2 9.7 0.00 0.00 0.00 38 1012.0
20260906075127 23 284 8.0 9.7 0.00 0.00 0.00 39 1012.0
20260906074129 23 314 4.8 4.8 0.00 0.00 0.00 39 1012.0
20260906073826 23 292 4.8 11.3 0.00 0.00 0.00 39 1012.1
20260906073130 23 283 3.2 4.8 0.00 0.00 0.00 40 1012.1
20260906072323 23 319 4.8 8.0 0.00 0.00 0.00 41 1012.0
20260906072131 23 289 4.8 4.8 0.00 0.00 0.00 40 1012.1
20260906071122 23 281 3.2 8.0 0.00 0.00 0.00 41 1012.0
20260906070819 23 271 3.2 4.8 0.00 0.00 0.00 40 1012.0
20260906070123 23 308 3.2 4.8 0.00 0.00 0.00 40 1012.0
20260906065326 23 36 0.0 1.6 0.00 0.00 0.00 39 1012.0
20260906065124 22 327 0.0 1.6 0.00 0.00 0.00 39 1012.0
20260906064126 22 309 1.6 3.2 0.00 0.00 0.00 40 1012.0
20260906063823 22 293 0.0 1.6 0.00 0.00 0.00 39 1012.0
20260906063126 22 306 0.0 0.0 0.00 0.00 0.00 40 1012.0
20260906062319 22 339 3.2 4.8 0.00 0.00 0.00 39 1012.0
20260906062127 22 308 3.2 3.2 0.00 0.00 0.00 39 1012.0
20260906061129 22 76 0.0 0.0 0.00 0.00 0.00 39 1011.9
20260906060826 22 106 0.0 1.6 0.00 0.00 0.00 39 1011.9
20260906060129 22 77 0.0 0.0 0.00 0.00 0.00 40 1011.9
20260906055323 21 341 0.0 0.0 0.00 0.00 0.00 42 1012.0
20260906055130 21 341 0.0 0.0 0.00 0.00 0.00 42 1012.0
20260906054122 21 305 0.0 0.0 0.00 0.00 0.00 43 1012.0
20260906053819 21 305 0.0 0.0 0.00 0.00 0.00 43 1012.1
20260906053122 20 305 0.0 0.0 0.00 0.00 0.00 44 1012.2
20260906052326 21 203 0.0 0.0 0.00 0.00 0.00 39 1012.2
20260906052124 20 190 0.0 0.0 0.00 0.00 0.00 39 1012.2
20260906051125 20 198 0.0 3.2 0.00 0.00 0.00 40 1012.1
20260906050822 20 220 1.6 4.8 0.00 0.00 0.00 41 1012.1
20260906050126 20 199 1.6 4.8 0.00 0.00 0.00 41 1012.1
20260906045319 20 172 1.6 3.2 0.00 0.00 0.00 42 1012.0
20260906045127 20 165 0.0 0.0 0.00 0.00 0.00 42 1012.0
20260906044129 18 204 0.0 3.2 0.00 0.00 0.00 43 1011.9
20260906043827 18 206 0.0 1.6 0.00 0.00 0.00 44 1011.9
20260906043129 18 155 1.6 4.8 0.00 0.00 0.00 45 1011.8
20260906042322 18 172 0.0 3.2 0.00 0.00 0.00 46 1011.8
20260906042130 18 170 0.0 3.2 0.00 0.00 0.00 46 1011.8
20260906041122 17 182 0.0 1.6 0.00 0.00 0.00 47 1011.8
20260906040819 17 161 1.6 3.2 0.00 0.00 0.00 47 1011.8
20260906040122 17 188 1.6 1.6 0.00 0.00 0.00 48 1011.7
20260906035326 17 161 0.0 1.6 0.00 0.00 0.00 48 1011.7
20260906035123 17 168 1.6 1.6 0.00 0.00 0.00 48 1011.7
20260906034125 17 164 0.0 0.0 0.00 0.00 0.00 48 1011.6
20260906033822 17 164 0.0 0.0 0.00 0.00 0.00 48 1011.5
20260906033125 17 164 0.0 0.0 0.00 0.00 0.00 49 1011.6
20260906032319 17 164 0.0 0.0 0.00 0.00 0.00 51 1011.5
20260906032127 17 164 0.0 0.0 0.00 0.00 0.00 51 1011.5
20260906031128 17 164 0.0 0.0 0.00 0.00 0.00 49 1011.5
20260906030825 17 164 0.0 0.0 0.00 0.00 0.00 49 1011.5
20260906030129 17 164 0.0 0.0 0.00 0.00 0.00 49 1011.3
20260906025322 17 164 0.0 0.0 0.00 0.00 0.00 48 1011.3
20260906025130 17 164 0.0 0.0 0.00 0.00 0.00 48 1011.2
20260906024131 17 182 0.0 0.0 0.00 0.00 0.00 48 1011.2
20260906023818 17 182 0.0 0.0 0.00 0.00 0.00 48 1011.3
20260906023131 18 182 0.0 0.0 0.00 0.00 0.00 48 1011.2
20260906022324 18 266 0.0 0.0 0.00 0.00 0.00 47 1011.2
20260906022122 18 266 0.0 0.0 0.00 0.00 0.00 47 1011.2
20260906021123 18 266 0.0 0.0 0.00 0.00 0.00 47 1011.2
20260906020820 18 266 0.0 0.0 0.00 0.00 0.00 46 1011.2
20260906020123 18 266 0.0 0.0 0.00 0.00 0.00 46 1011.2
20260906015327 18 266 0.0 0.0 0.00 0.00 0.00 46 1011.2
20260906015124 18 266 0.0 0.0 0.00 0.00 0.00 46 1011.2
20260906014126 18 266 0.0 0.0 0.00 0.00 0.00 46 1011.1
20260906013823 18 266 0.0 0.0 0.00 0.00 0.00 46 1011.2
20260906013126 18 266 0.0 1.6 0.00 0.00 0.00 46 1011.2
20260906012320 18 266 0.0 1.6 0.00 0.00 0.00 46 1011.3
20260906012128 18 277 0.0 0.0 0.00 0.00 0.00 46 1011.2
20260906011129 18 21 0.0 0.0 0.00 0.00 0.00 46 1011.2
20260906010826 18 21 0.0 0.0 0.00 0.00 0.00 46 1011.2
20260906010130 18 21 0.0 0.0 0.00 0.00 0.00 46 1011.1
20260906005323 18 21 0.0 0.0 0.00 0.00 0.00 45 1011.1
20260906005131 18 21 0.0 0.0 0.00 0.00 0.00 44 1011.1
20260906004123 18 21 0.0 0.0 0.00 0.00 0.00 44 1011.2
20260906003820 18 21 0.0 0.0 0.00 0.00 0.00 44 1011.3
20260906003123 18 21 0.0 0.0 0.00 0.00 0.00 44 1011.3
20260906002326 18 21 0.0 0.0 0.00 0.00 0.00 43 1011.4
20260906002124 18 21 0.0 0.0 0.00 0.00 0.00 43 1011.4
20260906001126 19 21 0.0 1.6 0.00 0.00 0.00 43 1011.3
20260906000823 19 344 0.0 1.6 0.00 0.00 0.00 42 1011.4
20260906000126 19 346 0.0 1.6 0.00 0.00 0.00 42 1011.4
20260905235320 19 36 0.0 0.0 0.00 0.00 0.00 42 1011.4
20260905235127 19 2 0.0 3.2 0.00 0.00 0.00 42 1011.5
20260905234128 19 353 0.0 0.0 0.00 0.00 0.00 42 1011.4
20260905233825 19 353 0.0 0.0 0.00 0.00 0.00 42 1011.5
20260905233129 19 353 0.0 0.0 0.00 0.00 0.00 41 1011.4
20260905232321 20 353 0.0 0.0 0.00 0.00 0.00 41 1011.4
20260905232129 20 353 0.0 0.0 0.00 0.00 0.00 41 1011.4
20260905231130 20 353 0.0 0.0 0.00 0.00 0.00 41 1011.5
20260905230817 20 353 0.0 0.0 0.00 0.00 0.00 41 1011.5
20260905230131 20 353 0.0 0.0 0.00 0.00 0.00 40 1011.6
20260905225324 20 354 0.0 0.0 0.00 0.00 0.00 40 1011.6
20260905225122 20 349 0.0 0.0 0.00 0.00 0.00 39 1011.6
20260905224124 20 1 0.0 0.0 0.00 0.00 0.00 39 1011.6
20260905223821 20 353 0.0 0.0 0.00 0.00 0.00 38 1011.6
20260905223124 20 8 0.0 1.6 0.00 0.00 0.00 38 1011.7
20260905222317 21 4 1.6 1.6 0.00 0.00 0.00 38 1011.7
20260905222125 21 54 1.6 4.8 0.00 0.00 0.00 38 1011.7
20260905221127 21 41 0.0 0.0 0.00 0.00 0.00 38 1011.7
20260905220824 21 27 1.6 1.6 0.00 0.00 0.00 38 1011.8
20260905220127 21 52 0.0 1.6 0.00 0.00 0.00 37 1011.8
20260905215321 21 22 0.0 0.0 0.00 0.00 0.00 36 1011.7
20260905215128 21 56 3.2 4.8 0.00 0.00 0.00 36 1011.8
20260905214130 21 19 0.0 3.2 0.00 0.00 0.00 35 1011.8
20260905213817 21 1 1.6 3.2 0.00 0.00 0.00 35 1011.8
20260905213130 21 14 0.0 0.0 0.00 0.00 0.00 35 1011.7
20260905212323 21 356 0.0 0.0 0.00 0.00 0.00 35 1011.7
20260905212121 21 356 0.0 0.0 0.00 0.00 0.00 35 1011.7
20260905211122 21 99 0.0 0.0 0.00 0.00 0.00 34 1011.7
20260905210819 21 246 0.0 3.2 0.00 0.00 0.00 34 1011.7
20260905210123 21 160 0.0 0.0 0.00 0.00 0.00 33 1011.7
20260905205326 22 105 3.2 8.0 0.00 0.00 0.00 33 1011.6
20260905205124 22 84 3.2 8.0 0.00 0.00 0.00 33 1011.7
20260905204126 22 133 3.2 4.8 0.00 0.00 0.00 33 1011.7
20260905203823 22 106 3.2 4.8 0.00 0.00 0.00 33 1011.7
20260905203126 22 90 0.0 1.6 0.00 0.00 0.00 33 1011.8
20260905202319 22 44 3.2 4.8 0.00 0.00 0.00 32 1012.0
20260905202127 22 39 0.0 4.8 0.00 0.00 0.00 33 1012.0
20260905201129 22 98 0.0 0.0 0.00 0.00 0.00 32 1011.9
20260905200826 22 98 0.0 0.0 0.00 0.00 0.00 32 1011.9
20260905200129 23 29 1.6 3.2 0.00 0.00 0.00 31 1011.9
20260905195323 23 3 0.0 0.0 0.00 0.00 0.00 31 1011.9
20260905195131 23 4 0.0 0.0 0.00 0.00 0.00 31 1011.9
20260905194122 23 327 0.0 0.0 0.00 0.00 0.00 31 1011.9
20260905193819 23 321 0.0 3.2 0.00 0.00 0.00 32 1011.8
20260905193123 23 319 0.0 1.6 0.00 0.00 0.00 31 1011.8
20260905192326 23 10 0.0 0.0 0.00 0.00 0.00 30 1011.6
20260905192124 23 6 1.6 3.2 0.00 0.00 0.00 30 1011.6
20260905191125 23 88 3.2 4.8 0.00 0.00 0.00 30 1011.6
20260905190822 23 104 0.0 1.6 0.00 0.00 0.00 30 1011.5
20260905190126 23 115 0.0 0.0 0.00 0.00 0.00 30 1011.5
20260905185319 23 106 0.0 1.6 0.00 0.00 0.00 30 1011.4
20260905185127 23 122 1.6 1.6 0.00 0.00 0.00 30 1011.4
20260905184129 23 204 0.0 4.8 0.00 0.00 0.00 30 1011.4
20260905183826 23 202 0.0 0.0 0.00 0.00 0.00 30 1011.4
20260905183129 23 237 0.0 0.0 0.00 0.00 0.00 31 1011.4
20260905182322 23 191 1.6 3.2 0.00 0.00 0.00 31 1011.4
20260905182130 23 113 1.6 4.8 0.00 0.00 0.00 31 1011.4
20260905181122 23 117 0.0 4.8 0.00 0.00 0.00 31 1011.5
20260905180819 23 116 1.6 4.8 0.00 0.00 0.00 31 1011.5
20260905180122 23 122 1.6 4.8 0.00 0.00 0.00 31 1011.4
20260905175326 23 92 1.6 4.8 0.00 0.00 0.00 31 1011.4
20260905175123 23 131 1.6 8.0 0.00 0.00 0.00 31 1011.4
20260905174125 24 221 0.0 0.0 0.00 0.00 0.00 30 1011.2
20260905173822 24 117 0.0 3.2 0.00 0.00 0.00 30 1011.2
20260905173126 24 156 3.2 3.2 0.00 0.00 0.00 30 1011.2
20260905172319 24 120 1.6 3.2 0.00 0.00 0.00 30 1011.1
20260905172127 24 208 3.2 4.8 0.00 0.00 0.00 30 1011.2
20260905171128 25 153 0.0 3.2 0.00 0.00 0.00 30 1011.1
20260905170825 25 139 1.6 4.8 0.00 0.00 0.00 30 1011.1
20260905170129 25 200 0.0 1.6 0.00 0.00 0.00 29 1011.1
20260905165322 25 110 3.2 3.2 0.00 0.00 0.00 29 1011.0
20260905165130 25 161 3.2 4.8 0.00 0.00 0.00 29 1011.0
20260905164122 25 212 0.0 1.6 0.00 0.00 0.00 29 1010.8
20260905163819 25 96 3.2 8.0 0.00 0.00 0.00 29 1010.8
20260905163122 25 121 1.6 4.8 0.00 0.00 0.00 29 1010.7
20260905162325 26 115 11.3 19.3 0.00 0.00 0.00 28 1010.7
20260905162123 26 105 9.7 20.9 0.00 0.00 0.00 29 1010.7
20260905161125 26 120 4.8 4.8 0.00 0.00 0.00 28 1010.6
20260905160822 26 92 8.0 12.9 0.00 0.00 0.00 28 1010.6
20260905160125 26 137 3.2 4.8 0.00 0.00 0.00 28 1010.5
20260905155319 27 15 4.8 8.0 0.00 0.00 0.00 29 1010.5
20260905155127 27 11 4.8 8.0 0.00 0.00 0.00 29 1010.5
20260905154128 27 32 1.6 3.2 0.00 0.00 0.00 27 1010.5
20260905153825 27 49 3.2 4.8 0.00 0.00 0.00 26 1010.5
20260905153128 27 358 3.2 4.8 0.00 0.00 0.00 26 1010.5
20260905152321 27 357 1.6 1.6 0.00 0.00 0.00 26 1010.5
20260905152129 27 35 3.2 4.8 0.00 0.00 0.00 26 1010.5
20260905151129 27 5 1.6 4.8 0.00 0.00 0.00 26 1010.6
20260905150816 27 358 4.8 8.0 0.00 0.00 0.00 26 1010.6
20260905150130 28 335 8.0 9.7 0.00 0.00 0.00 25 1010.5
20260905145323 28 315 1.6 4.8 0.00 0.00 0.00 25 1010.5
20260905145121 28 331 4.8 9.7 0.00 0.00 0.00 25 1010.5
20260905144123 28 52 3.2 4.8 0.00 0.00 0.00 24 1010.6
20260905143820 28 339 1.6 3.2 0.00 0.00 0.00 24 1010.6
20260905143123 28 282 0.0 0.0 0.00 0.00 0.00 24 1010.6
20260905142316 28 16 8.0 9.7 0.00 0.00 0.00 24 1010.5
20260905142124 28 263 0.0 4.8 0.00 0.00 0.00 24 1010.5
20260905141126 28 335 8.0 9.7 0.00 0.00 0.00 25 1010.5
20260905140823 28 295 8.0 8.0 0.00 0.00 0.00 23 1010.5
20260905140126 28 339 8.0 11.3 0.00 0.00 0.00 24 1010.5
20260905135320 28 260 1.6 3.2 0.00 0.00 0.00 24 1010.6
20260905135128 28 218 0.0 0.0 0.00 0.00 0.00 24 1010.6
20260905134129 28 347 4.8 4.8 0.00 0.00 0.00 24 1010.6
20260905133816 28 33 3.2 8.0 0.00 0.00 0.00 25 1010.6
20260905133130 28 337 3.2 4.8 0.00 0.00 0.00 26 1010.6
20260905132323 28 319 1.6 4.8 0.00 0.00 0.00 26 1010.7
20260905132121 28 307 1.6 4.8 0.00 0.00 0.00 25 1010.6
20260905131122 28 315 3.2 4.8 0.00 0.00 0.00 26 1010.8
20260905130819 27 0 0.0 0.0 0.00 0.00 0.00 26 1010.9
20260905130123 28 308 8.0 9.7 0.00 0.00 0.00 26 1010.9
20260905125325 28 359 0.0 0.0 0.00 0.00 0.00 27 1011.0
20260905125123 27 48 0.0 1.6 0.00 0.00 0.00 27 1011.0
20260905124125 27 330 8.0 12.9 0.00 0.00 0.00 26 1011.2
20260905123822 27 302 4.8 9.7 0.00 0.00 0.00 27 1011.1
20260905123125 27 308 4.8 9.7 0.00 0.00 0.00 27 1011.2
20260905122318 27 304 3.2 9.7 0.00 0.00 0.00 27 1011.3
20260905122126 27 324 4.8 9.7 0.00 0.00 0.00 27 1011.3
20260905121128 27 331 1.6 4.8 0.00 0.00 0.00 29 1011.3
20260905120824 27 323 4.8 16.1 0.00 0.00 0.00 29 1011.3
20260905120127 27 207 1.6 1.6 0.00 0.00 0.00 29 1011.3
20260905115321 27 331 4.8 9.7 0.00 0.00 0.00 30 1011.5
20260905115129 27 7 4.8 8.0 0.00 0.00 0.00 30 1011.6
20260905114120 27 336 11.3 22.5 0.00 0.00 0.00 28 1011.5
20260905113817 27 332 11.3 16.1 0.00 0.00 0.00 29 1011.6
20260905113121 28 52 4.8 12.9 0.00 0.00 0.00 29 1011.6
20260905112324 27 282 3.2 8.0 0.00 0.00 0.00 30 1011.7
20260905112122 27 287 8.0 11.3 0.00 0.00 0.00 30 1011.8
20260905111123 27 264 3.2 9.7 0.00 0.00 0.00 30 1011.9
20260905110820 27 274 0.0 1.6 0.00 0.00 0.00 31 1011.9
20260905110124 27 300 8.0 12.9 0.00 0.00 0.00 30 1012.0